Chicopee, MA

2:55 PM EDT on September 15, 2019 (GMT -0400)
Westover Air Reserve Base / Metropolitan Airport

Weather History for KCEF - August, 2019

Change the Weather History Date:

Sunday, August 25, 2019

  Actual Average Record
Temperature  
Mean Temperature 62 °F -  
Max Temperature 73 °F 77 °F 87 °F (1998)
Min Temperature 50 °F 57 °F 47 °F (2013)
Degree Days  
Heating Degree Days 3    
Growing Degree Days 12 (Base 50)    
Moisture  
Dew Point 52 °F    
Average Humidity 74    
Maximum Humidity 100    
Minimum Humidity 41    
Precipitation  
Precipitation 0.00 in - - ()
Sea Level Pressure  
Sea Level Pressure 30.31 in    
Wind  
Wind Speed 4 mph ()    
Max Wind Speed 13 mph    
Max Gust Speed 20 mph    
Visibility 10.0 miles    
Events      
Averages and records for this station are not official NWS values.
T = Trace of Precipitation, MM = Missing Value Source: Averaged Metar Reports

Daily Weather History Graph

Daily Weather History Graph

Search for Another Location

Airport or City:

Astronomy

Aug. 25, 2019 Rise Set
Actual Time 6:07 AM EDT 7:35 PM EDT
Civil Twilight 5:38 AM EDT 8:05 PM EDT
Nautical Twilight 5:03 AM EDT 8:40 PM EDT
Astronomical Twilight 4:25 AM EDT 9:17 PM EDT
Moon 12:37 AM EDT (8/25) 3:57 PM EDT (8/25)
Length of Visible Light 14h 26m
Length of Day
13h 27m
Waning Crescent, 29% of the Moon is Illuminated
Aug 25
Waning Crescent
Aug 30
New
Sep 5
First Quarter
Sep 14
Full
Sep 21
Last Quarter

Hourly Weather History & Observations

Time (EDT) Temp. Dew Point Humidity Pressure Visibility Wind Dir Wind Speed Gust Speed Precip Events Conditions
12:56 AM 58.3 °F 55.0 °F 89% 30.31 in 10.0 mi Calm Calm - N/A   Scattered Clouds
1:56 AM 56.1 °F 55.0 °F 96% 30.31 in 10.0 mi Calm Calm - N/A   Clear
2:56 AM 54.9 °F 54.0 °F 97% 30.30 in 10.0 mi NE 5.8 mph - N/A   Clear
3:56 AM 54.5 °F 53.6 °F 97% 30.31 in 10.0 mi ENE 3.5 mph - N/A   Clear
4:56 AM 54.1 °F 53.2 °F 97% 30.31 in 10.0 mi ENE 4.6 mph - N/A   Clear
5:26 AM 53.6 °F 53.6 °F 100% 30.31 in 10.0 mi NE 3.5 mph - N/A   Mostly Cloudy
5:41 AM 55.4 °F 53.6 °F 94% 30.31 in 10.0 mi NE 3.5 mph - N/A   Overcast
5:56 AM 56.1 °F 55.2 °F 97% 30.31 in 10.0 mi NE 3.5 mph - N/A   Overcast
6:41 AM 57.2 °F 55.4 °F 94% 30.32 in 10.0 mi NE 5.8 mph - N/A   Overcast
6:56 AM 57.9 °F 55.6 °F 92% 30.32 in 10.0 mi NE 3.5 mph - N/A   Mostly Cloudy
7:56 AM 60.8 °F 57.2 °F 88% 30.33 in 10.0 mi NE 5.8 mph - N/A   Mostly Cloudy
8:56 AM 64.8 °F 55.6 °F 72% 30.34 in 10.0 mi ENE 10.4 mph - N/A   Scattered Clouds
9:56 AM 67.8 °F 53.8 °F 61% 30.35 in 10.0 mi ENE 8.1 mph 17.3 mph N/A   Scattered Clouds
10:56 AM 68.5 °F 51.8 °F 55% 30.34 in 10.0 mi ENE 12.7 mph - N/A   Scattered Clouds
12:56 PM 72.0 °F 50.5 °F 47% 30.32 in 10.0 mi ENE 11.5 mph 19.6 mph N/A   Partly Cloudy
1:56 PM 73.4 °F 50.7 °F 45% 30.31 in 10.0 mi East 9.2 mph - N/A   Partly Cloudy
2:56 PM 71.4 °F 51.3 °F 49% 30.30 in 10.0 mi East 8.1 mph - N/A   Scattered Clouds
3:56 PM 72.9 °F 52.5 °F 49% 30.29 in 10.0 mi ESE 3.5 mph - N/A   Scattered Clouds
4:56 PM 71.1 °F 51.4 °F 50% 30.27 in 10.0 mi East 5.8 mph - N/A   Scattered Clouds
5:56 PM 70.3 °F 50.2 °F 49% 30.27 in 10.0 mi ENE 9.2 mph - N/A   Partly Cloudy
6:56 PM 67.1 °F 42.6 °F 41% 30.28 in 10.0 mi East 6.9 mph - N/A   Partly Cloudy
7:56 PM 62.2 °F 45.3 °F 54% 30.30 in 10.0 mi East 5.8 mph - N/A   Clear
8:56 PM 57.2 °F 46.4 °F 67% 30.31 in 10.0 mi Calm Calm - N/A   Clear
9:56 PM 53.8 °F 47.1 °F 78% 30.32 in 10.0 mi NE 4.6 mph - N/A   Clear
10:56 PM 51.6 °F 47.3 °F 85% 30.31 in 10.0 mi Calm Calm - N/A   Clear
11:56 PM 50.2 °F 46.8 °F 88% 30.30 in 10.0 mi ENE 3.5 mph - N/A   Clear